"Pseudo-MPEC" for P12b6kb

Created 2025 Jul 7 21:35:08 UT using Find_Orb

Click here for an explanation of pseudo-MPECs

 
 Astrometry: 
     P12b6kb* C2025 06 22.28921114 15 09.213-19 46 25.37   ~6MMK 22.38wXNEOCPF51
     P12b6kb  C2025 06 22.30214914 15 09.052-19 46 21.06   ~6MMK 22.40wXNEOCPF51
     P12b6kb  C2025 06 22.31442214 15 08.926-19 46 17.11   ~6MMK 22.35wXNEOCPF51

Station data:
(F51) Pan-STARRS 1, Haleakala  (N20.707234 W156.255910)  US/Hawaii.
   Observers J. Bulger, T. Lowe, A. Schultz, M. Willman. Measurers K.
   Chambers, S. Chastel, T. de Boer, L. Denneau, J. Fairlamb, H. Flewelling,
   M. Huber, C.-C. Lin, E. Magnier, Y. Ramanjooloo, R. Wainscoat, R. Weryk.
   1.8-m Ritchey-Chrétien + CCD.

Orbital elements:  P12b6kb
   Perihelion 2024 Oct 25.94498 +/- 576 TT = 22:40:46 (JD 2460609.44498)
Epoch 2025 Jun 22.0 TT = JDT 2460848.5   Earth MOID: 0.2762   Ju: 0.0814
M  10.06895256 +/- 70               Ve: 0.0867   Sa: 0.7360      AutoNEOCP
n   0.04211981 +/- 0.176            Peri.  211.47987 +/- 110
a   8.18110117 +/- 22.8             Node   242.02365 +/- 60
e   0.9288170 +/- 0.256             Incl.   24.17561 +/- 32
P  23.40010                H 16.51  G  0.15   U 11.6  SR
q 0.58235460 +/- 2.16    Q 15.7798477 +/- 66.7            (J2000 ecliptic)
From 3 observations 2025 June 22 (36.3 min); mean residual 0".07
Residuals in arcseconds: 
250622 F51  .06+  .02-    250622 F51  .13-  .05+    250622 F51  .07+  .02-    

Ephemerides (geocentric):
Date (UTC) HH   RA             Dec           delta  r     elong  mag " sig PA
---- --------  ------------   ------------  ------ ------ -----  --- --------
2025 07 07 22  14 14 58.329   -18 39 37.92  3.1614 3.6654 112.0 22.7 2885  68
2025 07 07 23  14 14 58.661   -18 39 30.01  3.1624 3.6658 112.0 22.7 2896  68
2025 07 08 00  14 14 58.995   -18 39 22.13  3.1634 3.6662 111.9 22.7 2907  68
2025 07 08 01  14 14 59.331   -18 39 14.25  3.1644 3.6667 111.9 22.7 2918  68
2025 07 08 02  14 14 59.668   -18 39 06.39  3.1654 3.6671 111.8 22.7 2929  68
2025 07 08 03  14 15 00.008   -18 38 58.54  3.1664 3.6675 111.8 22.7 2939  68
2025 07 08 04  14 15 00.349   -18 38 50.71  3.1674 3.6679 111.8 22.7 2950  68
2025 07 08 05  14 15 00.692   -18 38 42.89  3.1684 3.6683 111.7 22.7 2961  68
2025 07 08 06  14 15 01.036   -18 38 35.09  3.1694 3.6688 111.7 22.7 2972  68
2025 07 08 07  14 15 01.382   -18 38 27.29  3.1704 3.6692 111.6 22.7 2983  68
2025 07 08 08  14 15 01.730   -18 38 19.51  3.1714 3.6696 111.6 22.7 2994  68
2025 07 08 09  14 15 02.080   -18 38 11.75  3.1725 3.6700 111.6 22.7 3005  68
2025 07 08 10  14 15 02.431   -18 38 04.00  3.1735 3.6704 111.5 22.7 3016  68
2025 07 08 11  14 15 02.785   -18 37 56.26  3.1745 3.6708 111.5 22.7 3027  68
2025 07 08 12  14 15 03.140   -18 37 48.54  3.1755 3.6713 111.4 22.7 3038  68
2025 07 08 13  14 15 03.496   -18 37 40.83  3.1765 3.6717 111.4 22.7 3049  68
2025 07 08 14  14 15 03.855   -18 37 33.13  3.1775 3.6721 111.4 22.7 3060  68
2025 07 08 15  14 15 04.215   -18 37 25.45  3.1785 3.6725 111.3 22.7 3071  68
2025 07 08 16  14 15 04.577   -18 37 17.78  3.1795 3.6729 111.3 22.7 3082  68
2025 07 08 17  14 15 04.940   -18 37 10.12  3.1805 3.6733 111.3 22.7 3093  68
2025 07 08 18  14 15 05.305   -18 37 02.48  3.1815 3.6738 111.2 22.7 3104  68
2025 07 08 19  14 15 05.672   -18 36 54.85  3.1825 3.6742 111.2 22.7 3115  68
2025 07 08 20  14 15 06.041   -18 36 47.24  3.1835 3.6746 111.1 22.7 3126  68
2025 07 08 21  14 15 06.412   -18 36 39.64  3.1845 3.6750 111.1 22.7 3137  68
2025 07 08 22  14 15 06.784   -18 36 32.05  3.1856 3.6754 111.1 22.7 3148  68
2025 07 08 23  14 15 07.158   -18 36 24.47  3.1866 3.6758 111.0 22.7 3160  68
2025 07 09 00  14 15 07.533   -18 36 16.91  3.1876 3.6763 111.0 22.7 3171  68
2025 07 09 01  14 15 07.911   -18 36 09.37  3.1886 3.6767 110.9 22.7 3182  68
2025 07 09 02  14 15 08.290   -18 36 01.83  3.1896 3.6771 110.9 22.7 3193  68
2025 07 09 03  14 15 08.670   -18 35 54.31  3.1906 3.6775 110.9 22.7 3204  68
2025 07 09 04  14 15 09.053   -18 35 46.81  3.1916 3.6779 110.8 22.7 3216  68
2025 07 09 05  14 15 09.437   -18 35 39.31  3.1926 3.6784 110.8 22.7 3227  68
2025 07 09 06  14 15 09.823   -18 35 31.83  3.1936 3.6788 110.8 22.7 3238  68
2025 07 09 07  14 15 10.211   -18 35 24.37  3.1946 3.6792 110.7 22.7 3250  68
2025 07 09 08  14 15 10.600   -18 35 16.92  3.1956 3.6796 110.7 22.7 3261  68
2025 07 09 09  14 15 10.991   -18 35 09.48  3.1967 3.6800 110.6 22.7 3272  68
2025 07 09 10  14 15 11.384   -18 35 02.05  3.1977 3.6804 110.6 22.7 3284  68
2025 07 09 11  14 15 11.778   -18 34 54.64  3.1987 3.6809 110.6 22.7 3295  68
2025 07 09 12  14 15 12.174   -18 34 47.24  3.1997 3.6813 110.5 22.7 3306  68
2025 07 09 13  14 15 12.572   -18 34 39.86  3.2007 3.6817 110.5 22.7 3318  68
2025 07 09 14  14 15 12.972   -18 34 32.48  3.2017 3.6821 110.4 22.7 3329  68
2025 07 09 15  14 15 13.373   -18 34 25.13  3.2027 3.6825 110.4 22.7 3341  68
2025 07 09 16  14 15 13.776   -18 34 17.78  3.2037 3.6829 110.4 22.7 3352  68
2025 07 09 17  14 15 14.180   -18 34 10.45  3.2047 3.6834 110.3 22.7 3363  68
2025 07 09 18  14 15 14.587   -18 34 03.13  3.2057 3.6838 110.3 22.7 3375  68
2025 07 09 19  14 15 14.995   -18 33 55.83  3.2068 3.6842 110.2 22.7 3386  68
2025 07 09 20  14 15 15.404   -18 33 48.54  3.2078 3.6846 110.2 22.7 3398  68
2025 07 09 21  14 15 15.816   -18 33 41.26  3.2088 3.6850 110.2 22.7 3410  68